Regional Weather Roundup
Issued by NWS Northern Indiana

Home | Current Version | Previous Version | Graphics & Text | Print | Product List | Glossary On
Versions: 1 2 3 4 5 6 7 8 9 10 11 12 13 14 15 16 17 18 19 20 21 22 23 24 25 26 27 28 29 30 31 32 33 34 35 36 37 38 39 40 41 42 43 44 45 46 47 48 49 50
000
ASUS43 KIWX 250610
RWRIWX

KIWX WEATHER ROUNDUP
NATIONAL WEATHER SERVICE NORTHERN INDIANA
100 AM EST THU DEC 25 2014

NOTE: "FAIR" INDICATES FEW OR NO CLOUDS BELOW 12,000 FEET WITH NO
SIGNIFICANT WEATHER AND/OR OBSTRUCTIONS TO VISIBILITY.

* THESE STATIONS ARE NOT UNDER NWS QUALITY CONTROL. THEY ALSO MAY NOT
  REPORT WEATHER SUCH AS PRECIPITATION OR FOG.

INZ001>027-250700-
NORTHERN INDIANA

CITY           SKY/WX    TMP DP  RH WIND       PRES   REMARKS
GARY*          CLOUDY    38  31  76 W14G20    29.65R
VALPARAISO     CLOUDY    36  33  89 W12       29.65R
6HR MIN TEMP:  35; 6HR MAX TEMP:  36; 6HR PCP:  0.01;

MICHIGAN CITY* CLOUDY    36  32  87 W8G17     29.64R
LAPORTE*       CLOUDY    37  36  93 W10G20    29.63R
6HR MIN TEMP:  37; 6HR MAX TEMP:  38;

KNOX*          CLOUDY    36  31  83 W14       29.64R
6HR MIN TEMP:   9; 6HR MAX TEMP:  81;

SOUTH BEND     CLOUDY    37  33  85 W17       29.62R
6HR MIN TEMP:  34; 6HR MAX TEMP:  37; 6HR PCP:  0.06;

GOSHEN         CLOUDY    36  33  89 W17       29.61R
6HR MIN TEMP:  33; 6HR MAX TEMP:  36; 6HR PCP:  0.03;

MONTICELLO*    CLOUDY    36  33  92 W14G21    29.69R
6HR MIN TEMP:  35; 6HR MAX TEMP:  36;

LOGANSPORT*    CLOUDY    34  32  93 W18G28    29.69R WCI  23
ROCHESTER*     CLOUDY    37  36  93 W14       29.65R
WARSAW*        CLOUDY    34  32  93 W14G21    29.62R WCI  24
ANGOLA*        CLOUDY    36  34  93 W10       29.58R
FORT WAYNE     CLOUDY    36  33  89 W21       29.64R
6HR MIN TEMP:  36; 6HR MAX TEMP:  37; 6HR PCP:  0.02;

HUNTINGTON*    DRIZZLE   35  33  95 W13G18    29.64R WCI  26
6HR MIN TEMP:  35; 6HR MAX TEMP:  37;

PERU/GRISSOM   CLOUDY    35  35 100 W18G26    29.67R WCI  25
6HR MIN TEMP:  35; 6HR MAX TEMP:  36; 6HR PCP: TRACE;

MARION*        CLOUDY    34  33  97 W14       29.68R WCI  25
6HR MIN TEMP:  22; 6HR MAX TEMP:  54;


$$
INZ028>050-250700-
CENTRAL INDIANA

CITY           SKY/WX    TMP DP  RH WIND       PRES   REMARKS
LAFAYETTE      CLOUDY    36  33  89 W15       29.72R
6HR MIN TEMP:  35; 6HR MAX TEMP:  36; 6HR PCP:  0.02;

KOKOMO*        CLOUDY    36  30  80 W18       29.68R
6HR MIN TEMP:  36; 6HR MAX TEMP:  37; 6HR PCP:  0.01;

MUNCIE*        CLOUDY    36  33  89 W17G28    29.68R
6HR MIN TEMP:  36; 6HR MAX TEMP:  38; 6HR PCP: TRACE;

INDIANAPOLIS   LGT RAIN  34  33  96 W16       29.73R WCI  24
6HR MIN TEMP:  34; 6HR MAX TEMP:  36; 6HR PCP:  0.01;


$$
MIZ043>046-050>051-056>058-064>065-071>073-077>080-250700-
SOUTHWEST LOWER MICHIGAN

CITY           SKY/WX    TMP DP  RH WIND       PRES   REMARKS
BATTLE CREEK   LGT RAIN  36  33  89 W12       29.54R
6HR MIN TEMP:  34; 6HR MAX TEMP:  36; 6HR PCP:  0.12;

BENTON HARBOR  CLOUDY    37  34  89 W21G26    29.59R
6HR MIN TEMP:  35; 6HR MAX TEMP:  37; 6HR PCP:  0.06;

COLDWATER*     LGT SNOW  36  35  96 MISG      29.56R
6HR MIN TEMP:  33; 6HR MAX TEMP:  36;

HILLSDALE*     CLOUDY    36  36 100 SW14G20   29.55R FOG
6HR MIN TEMP:  34; 6HR MAX TEMP:  36;

HOLLAND        LGT RAIN  39  34  82 W13G24    29.55R
6HR MIN TEMP:  38; 6HR MAX TEMP:  40; 6HR PCP:  0.12;

GRAND RAPIDS   CLOUDY    37  34  89 W17G23    29.51R
6HR MIN TEMP:  33; 6HR MAX TEMP:  37; 6HR PCP:  0.15;

KALAMAZOO      LGT RAIN  36  34  92 W9        29.56R FOG
6HR MIN TEMP:  34; 6HR MAX TEMP:  37; 6HR PCP:  0.10;

STURGIS*       MIX PCPN  36  36 100 SW13G18   29.57R
THREE RIVERS*  LGT RAIN  36  35  95 W9        29.58R
6HR MIN TEMP:  34; 6HR MAX TEMP:  36;


$$
OHZ001>008-015>018-024>025-250700-
NORTHWEST OHIO

CITY           SKY/WX    TMP DP  RH WIND       PRES   REMARKS
WAUSEON*       CLOUDY    37  36  93 W21G26    29.58R
DEFIANCE       CLOUDY    38  34  85 SW13G24   29.61R
6HR MIN TEMP:  38; 6HR MAX TEMP:  39; 6HR PCP:  0.01;

FINDLAY        CLOUDY    38  34  85 W23G31    29.61R
6HR MIN TEMP:  38; 6HR MAX TEMP:  40; 6HR PCP: TRACE;

TOLEDO EXPRESS CLOUDY    37  33  85 SW21G26   29.58R
6HR MIN TEMP:  36; 6HR MAX TEMP:  40; 6HR PCP: TRACE;

TOLEDO METCALF CLOUDY    38  33  82 SW22G29   29.59R
6HR MIN TEMP:  38; 6HR MAX TEMP:  42; 6HR PCP: TRACE;

LIMA           LGT RAIN  38  34  85 W16       29.63R
6HR MIN TEMP:  38; 6HR MAX TEMP:  40; 6HR PCP: TRACE;


$$
AND FOR LAKE MICHIGAN COASTAL AND OPEN LAKE BUOY OBSERVATIONS

STATION/POSITION TEMP    WIND        PRES    VSBY  WAVE
                 AIR SEA DIR/SP/G                  HT/PER
                 (F)     (DEG/KT/KT) (MB)    (MI)  (FT/S)
CALUMET HARBOR    37     250/  9/ 13 1002.6R
MICHIGAN CITY     37     240/ 22/ 24   N/A
SAINT JOSEPH      38     250/ 18/ 24 1003.4R

$$
&&


USA.gov is the U.S. government's official web portal to all federal, state and local government web resources and services.